Location: Launois
(49.6535°N, 4.5395°E)
Time: 09:50:21
(UTC+00:00)

CZ-2D R/B - Pass Details

Date: 14 August 2024
Orbit: 791 x 842 km, 98.8° (Epoch: 16 September)

Event Time Altitude Azimuth Distance (km) Brightness Sun altitude
Rises 03:27:21 0° 5° (N) 3,332 6.0 -9.8°
Reaches altitude 10° 03:30:10 10° 351° (N) 2,406 4.9 -9.5°
Maximum altitude 03:34:04 21° 303° (WNW) 1,749 3.7 -9.0°
Drops below altitude 10° 03:38:00 10° 255° (WSW) 2,420 4.0 -8.4°
Enters shadow 03:38:17 - 253° (WSW) 2,504 4.0 -8.4°
